Regional Weather Roundup
Issued by NWS

Home | Current Version | Previous Version | Graphics & Text | Print | Product List | Glossary On
Versions: 1 2 3 4 5 6 7 8 9 10 11 12 13 14 15 16 17 18 19 20 21 22 23 24 25 26 27 28 29 30 31 32 33 34 35 36 37 38 39 40 41 42 43 44 45 46 47 48 49 50
000
ASUS43 KTOP 281959
RWRKS

WEATHER ROUNDUP FOR KANSAS
NATIONAL WEATHER SERVICE GOODLAND KS
300 PM CDT MON JUL 28 2014

NOTE:  "FAIR" INDICATES FEW OR NO CLOUDS BELOW 12,000 FEET WITH NO
SIGNIFICANT WEATHER AND/OR OBSTRUCTIONS TO VISIBILITY.

KSZ001>006-013>018-027>032-041>047-282100-
NORTHWEST KANSAS

CITY           SKY/WX    TMP DP  RH WIND       PRES   REMARKS
GOODLAND       SUNNY     84  54  35 S16G23    30.29F
HAYS           SUNNY     84  57  39 CALM      30.26S
HILL CITY      SUNNY     87  55  33 SE8       30.25F
RUSSELL        SUNNY     84  57  39 VRB7      30.24F
$$

KSZ061>065-074>080-084>089-282100-
SOUTHWEST KANSAS

CITY           SKY/WX    TMP DP  RH WIND       PRES   REMARKS
DODGE CITY     PTSUNNY   84  56  38 SE13      30.28F
ELKHART          N/A     73  60  63 S9          N/A
GARDEN CITY    PTSUNNY   83  56  39 SW14G20   30.28F
GREAT BEND     SUNNY     82  57  42 CALM      30.23F
LIBERAL        CLOUDY    79  57  47 S14       30.33F
PRATT          MOSUNNY   84  52  32 CALM      30.26F
$$

KSZ066>073-081>083-090>101-282100-
SOUTHEAST KANSAS

CITY           SKY/WX    TMP DP  RH WIND       PRES   REMARKS
CHANUTE        SUNNY     83  58  42 N14       30.20F
COFFEYVILLE    SUNNY     85  59  41 NW10G16   30.18F
HUTCHINSON     SUNNY     86  57  37 N7        30.24F
MEDICINE LODGE   N/A     88  61  40 NW5       30.22F
NEWTON         SUNNY     82  54  36 NW9G18    30.26F
PARSONS        SUNNY     85  57  38 N10       30.19F
WICHITA INTL   MOSUNNY   84  59  42 NW9       30.23F
WICHITA JABRA  SUNNY     86  58  38 NW8G17    30.22F
WINFIELD       MOSUNNY   87  60  40 N16G22    30.23F
$$

KSZ007>012-019>026-033>040-048>060-102>105-282100-
NORTHEAST KANSAS

CITY           SKY/WX    TMP DP  RH WIND       PRES   REMARKS
CONCORDIA      MOSUNNY   81  59  47 N8        30.25F
EMPORIA        SUNNY     84  54  35 N14       30.21F
LAWRENCE       MOSUNNY   84  59  42 N7G17     30.20F
MANHATTAN      SUNNY     84  54  35 VRB6      30.22F
OLATHE IND     MOSUNNY   80  58  46 NW9       30.21F
OLATHE EXE     PTSUNNY   80  57  45 N12       30.19F
SALINA           N/A     87  54  32 NE10      30.23F
TOPEKA BILLARD MOSUNNY   83  56  39 NW9       30.21F
TOPEKA FORBES  PTSUNNY   83  56  39 N8        30.21F
$$


USA.gov is the U.S. government's official web portal to all federal, state and local government web resources and services.